CAPE
471 113 71 188 55 8 5 49 238 712 928 1077 1170 1247 1199 941 779 892 942 1005 688 633
181 24 0 41 56 0 4 0 42 315 687 965 1030 1086 1112 937 741 752 923 1014 1048 653
22 20 11 50 26 0 0 0 22 141 402 751 917 994 962 811 822 845 815 911 903 859
0 0 18 23 0 0 0 0 0 0 11 173 521 768 743 760 811 551 882 875 833 769
0 0 0 0 0 0 0 0 0 0 0 0 48 411 632 648 874 536 524 612 603 744
0 0 0 0 0 0 0 0 0 0 0 0 0 11 247 429 513 783 546 567 481 557
0 0 0 0 0 0 0 0 0 0 0 0 0 0 4 154 277 446 551 570 569 556
0 4 3 6 0 0 0 0 0 0 0 0 0 0 0 40 153 313 441 557 524 589
0 0 0 0 0 0 0 0 0 0 0 0 0 0 0 0 150 288 419 545 529 557
0 0 0 0 0 0 0 0 0 0 0 0 0 0 0 0 2 200 299 510 568 512
0 0 0 0 0 0 0 0 0 0 0 0 0 0 0 0 0 148 146 325 440 534
0 0 0 0 0 5 8 11 5 5 1 0 0 0 0 0 1 32 204 258 592 625
1 4 6 14 30 31 26 21 13 4 3 0 0 0 0 0 0 84 383 645 567 466
17 27 19 17 16 18 19 22 17 10 7 3 0 0 0 0 0 24 408 383 64 3
CIN
-112 -84 -82 -94 -94 -122 -86 -139 -38 -30 -21 -14 -4 -0 -0 -1 -1 -1 -2 -1 -5 -7
-130 -146 -0 -163 -148 -0 -67 -0 -150 -56 -25 -9 -3 -0 -1 -2 -1 -2 -1 -1 -0 -1
-142 -179 -218 -193 -220 -0 -0 -0 -280 -181 -50 -4 -1 -1 -0 -1 -1 -1 -0 -0 -1 -0
-0 -0 -203 -236 -6 -0 -0 -0 -0 -0 -220 -137 -1 -1 -3 -1 -1 -1 -1 -0 -2 -1
-0 -0 -0 -11 -0 -0 -0 -0 -0 -0 -0 -0 -209 -1 -1 -1 -2 -1 -1 -1 -1 -3
-0 -0 -0 -0 -0 -0 -0 -0 -0 -0 -0 -0 -0 -205 -45 -9 -3 -1 -1 -1 -1 -1
-0 -0 -0 -0 -0 -0 -0 -0 -0 -0 -0 -0 -0 -0 -79 -92 -34 -1 -1 -1 -1 -2
-0 -88 -106 -119 -0 -0 -0 -0 -0 -0 -0 -0 -0 -0 -0 -178 -67 -2 -1 -2 -1 -2
-0 -0 -0 -0 -0 -0 -0 -0 -0 -0 -0 -0 -0 -0 -0 -0 -39 -4 -2 -3 -1 -1
-0 -0 -0 -0 -0 -0 -0 -0 -0 -0 -0 -0 -0 -0 -0 -0 -12 -20 -8 -2 -2 -1
-0 -0 -0 -0 -0 -0 -0 -0 -0 -0 -0 -0 -0 -0 -0 -0 -0 -46 -14 -2 -1 -1
-0 -0 -0 -0 -0 -0 -1 -2 -1 -1 -1 -0 -0 -0 -0 -0 -0 -49 -7 -5 -1 -1
-3 -2 -2 -1 -0 -2 -1 -1 -2 -2 -1 -0 -0 -0 -0 -0 -0 -57 -1 -0 -3 -3
-2 -2 -2 -5 -6 -3 -2 -0 -1 -1 -0 -2 -0 -0 -0 -0 -0 -54 -0 -1 -128 -121
Wind_Speed
11 13 17 19 21 25 29 31 31 31 30 29 29 29 28 27 27 28 25 26 26 25
15 16 17 19 21 22 27 31 33 35 35 34 32 30 29 28 27 27 26 26 26 24
17 19 20 21 22 24 26 28 31 34 35 35 35 32 31 30 28 28 26 26 26 25
20 21 21 22 24 25 27 29 31 32 34 34 34 35 35 33 33 30 29 28 26 27
21 21 22 24 25 26 28 30 32 33 34 35 34 36 38 36 37 35 32 30 28 26
22 23 24 26 27 29 30 31 32 34 36 36 37 37 39 40 39 35 37 35 33 28
22 24 26 28 30 31 33 34 34 35 37 39 39 40 40 40 41 39 38 35 34 32
23 26 29 32 34 36 36 36 36 37 38 40 40 39 38 37 39 42 41 39 35 36
30 33 35 35 36 37 38 38 39 40 40 41 41 40 40 39 40 42 43 45 41 37
35 40 40 40 39 39 40 40 41 41 42 43 43 42 40 41 41 42 40 46 44 40
41 43 45 44 43 43 43 42 42 44 44 44 44 42 41 40 40 42 43 45 45 38
45 46 45 45 43 41 39 40 42 44 46 46 46 43 42 40 39 41 43 44 43 35
42 43 43 42 40 38 37 40 43 47 48 49 49 45 43 41 40 42 42 40 36 30
42 41 39 38 38 39 40 42 44 46 49 51 49 47 43 41 40 42 41 38 32 27
Wind_Direction
300 303 302 304 307 304 299 297 297 295 295 294 292 287 287 287 286 286 282 275 269 266
298 298 302 304 307 311 306 298 295 292 290 289 289 289 287 286 286 286 286 279 272 268
292 295 298 301 303 305 310 309 303 297 293 289 286 286 284 283 283 284 285 284 278 273
285 291 293 295 299 303 306 306 305 301 297 294 289 283 280 280 279 280 282 282 280 275
283 286 288 292 296 300 303 303 302 300 297 294 290 283 277 279 277 278 278 279 280 277
282 285 285 289 293 296 299 300 301 299 295 294 288 284 279 276 276 277 275 276 277 279
282 284 287 290 292 293 296 297 299 297 294 290 288 283 279 278 275 275 275 275 276 276
284 286 288 290 291 291 292 292 294 294 291 289 287 286 283 283 278 274 273 273 274 274
287 287 287 290 291 290 290 289 289 289 287 286 285 286 285 283 280 277 273 268 269 272
288 286 287 288 289 288 288 287 286 285 285 284 284 286 287 282 278 277 275 266 266 269
287 287 286 287 287 286 286 283 283 282 281 282 283 285 285 284 279 276 273 266 263 265
287 286 287 287 286 285 283 281 281 280 279 279 280 282 282 281 278 274 269 264 261 261
287 286 286 287 285 284 282 281 281 279 278 276 276 278 279 277 273 270 266 265 262 257
287 287 286 285 284 283 282 282 280 280 278 274 270 272 274 272 269 265 264 262 261 256